SCP
0 0 0 0 0 0 0 0 0 0 0 0 0 0 0 0 0 0 0 0 0 0 0 0 0 0 0 0 0 0 0 0
0 0 0 0 0 0 0 0 0 0 0 0 0 0 0 0 0 0 0 0 0 -0 -0 0 0 0 0 0 0 0 0 0
0 0 0 0 0 0 0 0 0 0 0 0 0 0 0 0 0 0 0 0 -0 -0 0 0 0 0 0 0 0 0 0 0
0 0 0 0 0 0 0 0 -0 0 0 0 0 0 0 0 0 0 0 -0 0 0 0 0 0 0 0 0 0 0 0 0
0 0 0 0 0 0 0 0 0 0 0 0 0 -0 -0 0 0 0 0 0 0 0 0 0 0 0 0 0 0 0 0 0
0 0 0 0 0 0 0 0 0 0 0 0 0 0 0 0 0 0 0 0 0 0 0 0 0 0 0 0 0 0 0 0
0 0 0 0 0 0 0 0 0 0 0 0 0 0 0 0 0 0 0 0 0 0 0 0 0 0 0 0 0 0 0 0
0 0 0 0 0 0 0 0 0 0 0 0 0 0 0 0 0 0 0 0 0 0 0 0 0 0 0 0 0 0 0 0
0 0 0 0 0 0 0 0 0 0 0 0 0 0 0 0 0 0 0 0 0 0 0 0 0 0 0 0 0 0 0 0
0 0 0 0 0 0 0 0 0 0 0 0 0 0 0 0 0 0 0 0 0 0 0 0 0 0 0 0 0 0 0 0
0 0 0 0 0 0 0 0 0 0 0 0 0 0 0 0 0 0 0 0 0 0 0 0 0 0 0 0 0 0 0 0
0 0 0 0 0 0 0 0 0 0 0 0 0 0 0 0 0 0 0 0 0 0 0 0 0 0 0 0 0 0 0 0
0 0 0 0 0 0 0 0 0 0 0 0 0 0 0 0 0 0 0 0 0 0 0 0 0 0 0 0 0 0 0 0
0 0 0 0 0 0 0 0 0 0 0 0 0 0 0 0 0 0 0 0 0 0 0 0 0 0 0 0 0 0 0 0
0 0 0 0 0 0 0 0 0 0 0 0 0 0 0 0 0 0 0 0 0 0 0 0 0 0 0 0 0 0 0 0
0 0 0 0 0 0 0 0 0 0 0 0 0 0 0 0 0 0 0 0 0 0 0 0 0 0 0 0 0 0 0 0
0 0 0 0 0 0 0 0 0 0 0 0 0 0 0 0 0 0 0 0 0 0 0 0 0 0 0 0 0 0 0 0
0 0 0 0 0 0 0 0 0 0 0 0 0 0 0 0 0 0 0 0 0 0 0 0 0 0 0 0 0 0 0 0
-0 -0 -0 0 0 0 0 0 0 0 0 0 0 0 0 0 0 0 0 0 0 0 0 0 0 0 0 0 0 0 0 0
-0 -0 -0 -0 -0 -0 0 0 0 0 0 0 0 0 0 0 0 0 0 0 0 0 0 0 0 0 0 0 0 0 0 0
Wind_Speed_500mb
12 13 19 22 24 25 25 27 30 31 30 27 25 27 27 24 22 25 27 27 26 24 26 26 24 26 24 22 24 31 30 33
14 13 15 17 18 20 21 22 24 25 24 22 23 23 19 19 23 28 28 25 22 22 21 20 20 17 16 18 20 22 25 26
16 15 16 16 17 18 19 18 19 20 20 19 18 17 18 22 25 26 22 21 20 15 14 13 12 11 9 9 13 18 23 25
16 16 17 17 16 18 20 20 20 20 20 19 18 19 21 22 19 16 15 15 14 11 8 7 6 3 2 6 11 16 22 27
18 18 19 19 19 18 20 21 23 20 20 19 22 23 23 20 14 15 13 13 11 9 8 8 8 8 10 12 15 18 21 23
22 23 22 22 21 22 24 24 24 21 20 20 23 22 19 15 16 15 12 13 13 10 11 13 12 14 15 17 18 21 20 22
21 27 28 27 28 23 23 27 27 23 23 27 26 24 20 19 21 17 14 16 18 17 19 19 20 22 21 24 24 24 25 23
26 31 34 34 32 31 27 26 29 29 29 32 34 32 28 28 29 25 24 28 26 26 27 25 25 27 27 30 31 29 28 28
30 32 32 36 35 32 32 33 32 31 33 38 41 41 39 41 39 35 36 38 37 35 35 38 32 34 34 35 36 36 33 32
32 35 35 35 36 34 30 32 35 35 35 37 43 48 49 51 50 47 49 49 48 47 46 47 42 39 39 40 42 42 39 36
27 28 31 29 30 31 30 30 31 33 35 38 42 47 51 52 55 57 59 62 61 61 58 54 53 44 45 44 49 51 45 39
22 25 28 28 27 27 30 30 32 32 33 35 37 42 46 52 54 55 59 64 67 69 67 64 60 56 50 51 53 57 52 49
19 22 24 27 28 28 31 32 33 34 34 34 35 38 39 43 46 49 53 59 63 67 70 70 67 63 59 55 55 56 60 57
19 21 24 27 30 31 32 34 34 33 33 34 34 34 36 39 40 41 44 49 54 58 63 64 64 62 61 62 57 57 60 61
20 22 24 27 30 32 35 36 36 35 33 33 33 32 30 32 35 37 38 40 43 45 48 49 51 53 54 57 58 59 60 58
25 26 27 29 31 34 35 37 37 36 36 35 34 34 33 30 32 33 30 31 36 38 39 42 46 41 39 39 47 54 53 51
26 27 29 31 33 34 35 37 38 36 36 37 38 37 35 36 29 22 29 31 30 31 31 36 43 42 37 36 39 36 38 45
30 31 33 34 34 35 36 37 37 36 36 36 37 36 37 37 37 38 20 24 24 24 28 36 42 43 36 33 37 34 39 41
30 32 35 35 34 35 36 37 38 36 35 35 34 34 33 33 34 34 37 33 25 20 22 23 26 29 33 37 39 40 42 45
30 32 35 36 33 34 34 35 36 36 34 33 30 30 31 32 30 30 29 29 29 22 18 23 23 24 26 29 27 26 27 29
Wind_Direction_500mb
327 298 293 291 286 280 277 277 277 276 276 273 272 273 276 276 275 271 259 255 251 254 253 256 266 272 285 299 294 293 294 291
342 320 305 296 295 297 292 286 278 274 272 274 275 271 271 276 269 260 255 252 251 250 254 261 265 280 294 295 296 308 312 307
327 328 318 309 307 305 300 294 286 284 282 283 276 278 278 263 255 257 251 242 248 250 256 267 281 285 291 304 327 337 338 332
304 309 314 310 306 302 298 293 288 290 288 287 280 267 256 255 255 257 248 244 245 249 261 269 277 274 316 327 333 344 353 354
319 309 311 314 308 295 286 283 280 281 283 277 266 254 252 253 257 256 258 256 247 236 242 243 234 266 287 296 310 315 322 331
324 329 316 307 305 306 292 278 273 277 276 272 265 260 256 259 257 250 247 248 244 234 238 251 254 270 282 294 302 305 310 316
305 323 321 314 307 304 304 297 278 268 267 267 265 260 259 256 253 250 245 245 246 247 252 258 266 274 281 286 290 295 301 302
301 316 316 312 311 307 298 292 293 274 265 263 263 262 260 258 257 254 251 251 255 256 260 260 264 272 277 282 286 289 290 293
311 311 308 308 308 307 300 292 284 283 270 261 262 262 259 258 257 255 255 256 257 259 263 266 267 273 275 277 281 283 283 285
314 314 314 311 310 308 301 294 289 283 278 275 272 269 266 263 262 260 258 259 261 262 262 267 270 269 271 274 276 278 278 279
314 314 315 313 313 313 311 305 300 294 288 283 278 276 274 272 268 264 262 262 263 263 265 265 267 266 267 270 274 274 276 273
318 320 323 325 326 323 320 316 313 309 303 297 292 286 281 277 274 272 269 266 265 265 265 265 264 265 264 267 270 274 275 271
326 331 333 331 332 330 325 323 319 317 313 307 301 296 293 287 282 277 275 273 271 270 268 268 267 266 266 266 267 269 271 271
337 340 338 337 337 337 333 330 328 325 320 315 312 308 302 297 293 289 284 282 281 280 279 277 274 269 265 264 264 263 265 270
346 345 344 341 340 339 336 334 333 333 331 326 323 319 317 309 304 301 298 293 290 291 292 290 286 281 272 265 261 261 263 265
352 351 347 344 342 340 338 336 336 338 338 336 333 331 328 324 320 310 308 306 305 303 301 305 301 299 297 289 270 260 263 263
359 354 349 345 343 342 340 339 339 341 341 342 342 340 338 334 330 325 311 304 297 283 278 282 288 297 297 294 289 282 272 269
4 360 355 349 345 342 341 341 341 341 341 343 342 344 344 343 340 337 340 329 320 309 295 280 280 281 285 290 282 266 266 262
2 359 357 352 344 339 337 336 334 336 338 339 341 343 346 347 348 347 345 349 348 333 317 313 305 297 290 285 280 273 265 265
354 353 353 349 343 337 335 332 330 329 332 334 337 339 344 347 348 351 352 352 356 356 338 334 338 331 319 314 307 295 285 279
Wind_Speed_850mb
12 13 19 22 24 25 25 27 30 31 30 27 25 27 27 24 22 25 27 27 26 24 26 26 24 26 24 22 24 31 30 33
14 13 15 17 18 20 21 22 24 25 24 22 23 23 19 19 23 28 28 25 22 22 21 20 20 17 16 18 20 22 25 26
16 15 16 16 17 18 19 18 19 20 20 19 18 17 18 22 25 26 22 21 20 15 14 13 12 11 9 9 13 18 23 25
16 16 17 17 16 18 20 20 20 20 20 19 18 19 21 22 19 16 15 15 14 11 8 7 6 3 2 6 11 16 22 27
18 18 19 19 19 18 20 21 23 20 20 19 22 23 23 20 14 15 13 13 11 9 8 8 8 8 10 12 15 18 21 23
22 23 22 22 21 22 24 24 24 21 20 20 23 22 19 15 16 15 12 13 13 10 11 13 12 14 15 17 18 21 20 22
21 27 28 27 28 23 23 27 27 23 23 27 26 24 20 19 21 17 14 16 18 17 19 19 20 22 21 24 24 24 25 23
26 31 34 34 32 31 27 26 29 29 29 32 34 32 28 28 29 25 24 28 26 26 27 25 25 27 27 30 31 29 28 28
30 32 32 36 35 32 32 33 32 31 33 38 41 41 39 41 39 35 36 38 37 35 35 38 32 34 34 35 36 36 33 32
32 35 35 35 36 34 30 32 35 35 35 37 43 48 49 51 50 47 49 49 48 47 46 47 42 39 39 40 42 42 39 36
27 28 31 29 30 31 30 30 31 33 35 38 42 47 51 52 55 57 59 62 61 61 58 54 53 44 45 44 49 51 45 39
22 25 28 28 27 27 30 30 32 32 33 35 37 42 46 52 54 55 59 64 67 69 67 64 60 56 50 51 53 57 52 49
19 22 24 27 28 28 31 32 33 34 34 34 35 38 39 43 46 49 53 59 63 67 70 70 67 63 59 55 55 56 60 57
19 21 24 27 30 31 32 34 34 33 33 34 34 34 36 39 40 41 44 49 54 58 63 64 64 62 61 62 57 57 60 61
20 22 24 27 30 32 35 36 36 35 33 33 33 32 30 32 35 37 38 40 43 45 48 49 51 53 54 57 58 59 60 58
25 26 27 29 31 34 35 37 37 36 36 35 34 34 33 30 32 33 30 31 36 38 39 42 46 41 39 39 47 54 53 51
26 27 29 31 33 34 35 37 38 36 36 37 38 37 35 36 29 22 29 31 30 31 31 36 43 42 37 36 39 36 38 45
30 31 33 34 34 35 36 37 37 36 36 36 37 36 37 37 37 38 20 24 24 24 28 36 42 43 36 33 37 34 39 41
30 32 35 35 34 35 36 37 38 36 35 35 34 34 33 33 34 34 37 33 25 20 22 23 26 29 33 37 39 40 42 45
30 32 35 36 33 34 34 35 36 36 34 33 30 30 31 32 30 30 29 29 29 22 18 23 23 24 26 29 27 26 27 29
Wind_Direction_850mb
327 298 293 291 286 280 277 277 277 276 276 273 272 273 276 276 275 271 259 255 251 254 253 256 266 272 285 299 294 293 294 291
342 320 305 296 295 297 292 286 278 274 272 274 275 271 271 276 269 260 255 252 251 250 254 261 265 280 294 295 296 308 312 307
327 328 318 309 307 305 300 294 286 284 282 283 276 278 278 263 255 257 251 242 248 250 256 267 281 285 291 304 327 337 338 332
304 309 314 310 306 302 298 293 288 290 288 287 280 267 256 255 255 257 248 244 245 249 261 269 277 274 316 327 333 344 353 354
319 309 311 314 308 295 286 283 280 281 283 277 266 254 252 253 257 256 258 256 247 236 242 243 234 266 287 296 310 315 322 331
324 329 316 307 305 306 292 278 273 277 276 272 265 260 256 259 257 250 247 248 244 234 238 251 254 270 282 294 302 305 310 316
305 323 321 314 307 304 304 297 278 268 267 267 265 260 259 256 253 250 245 245 246 247 252 258 266 274 281 286 290 295 301 302
301 316 316 312 311 307 298 292 293 274 265 263 263 262 260 258 257 254 251 251 255 256 260 260 264 272 277 282 286 289 290 293
311 311 308 308 308 307 300 292 284 283 270 261 262 262 259 258 257 255 255 256 257 259 263 266 267 273 275 277 281 283 283 285
314 314 314 311 310 308 301 294 289 283 278 275 272 269 266 263 262 260 258 259 261 262 262 267 270 269 271 274 276 278 278 279
314 314 315 313 313 313 311 305 300 294 288 283 278 276 274 272 268 264 262 262 263 263 265 265 267 266 267 270 274 274 276 273
318 320 323 325 326 323 320 316 313 309 303 297 292 286 281 277 274 272 269 266 265 265 265 265 264 265 264 267 270 274 275 271
326 331 333 331 332 330 325 323 319 317 313 307 301 296 293 287 282 277 275 273 271 270 268 268 267 266 266 266 267 269 271 271
337 340 338 337 337 337 333 330 328 325 320 315 312 308 302 297 293 289 284 282 281 280 279 277 274 269 265 264 264 263 265 270
346 345 344 341 340 339 336 334 333 333 331 326 323 319 317 309 304 301 298 293 290 291 292 290 286 281 272 265 261 261 263 265
352 351 347 344 342 340 338 336 336 338 338 336 333 331 328 324 320 310 308 306 305 303 301 305 301 299 297 289 270 260 263 263
359 354 349 345 343 342 340 339 339 341 341 342 342 340 338 334 330 325 311 304 297 283 278 282 288 297 297 294 289 282 272 269
4 360 355 349 345 342 341 341 341 341 341 343 342 344 344 343 340 337 340 329 320 309 295 280 280 281 285 290 282 266 266 262
2 359 357 352 344 339 337 336 334 336 338 339 341 343 346 347 348 347 345 349 348 333 317 313 305 297 290 285 280 273 265 265
354 353 353 349 343 337 335 332 330 329 332 334 337 339 344 347 348 351 352 352 356 356 338 334 338 331 319 314 307 295 285 279